User: anonymous   Login
Location: Unspecified
(0.0000°N, 0.0000°E)
Time: 22:27:51
(UTC+00:00)
Language:

OPTUS D2 - Orbit

View from above orbital plane
View from above orbital plane
View from above satellite
View from above satellite

Ground track
Ground track

The orbit data is extracted from the following two-line orbital elements,

1 32252U 07044A   15025.65015184 -.00000199  00000-0  00000+0 0  6145
2 32252 000.0122 009.5747 0002518 296.6740 204.4228 01.00270753 26761
Epoch (UTC): 25 January 2015 15:36:13
Eccentricity: 0.0002518
inclination: 0.0122°
perigee height: 35776 km
apogee height: 35797 km
right ascension of ascending node: 9.5747°
argument of perigee: 296.6740°
revolutions per day: 1.00270753
mean anomaly at epoch: 204.4228°
orbit number at epoch: 2676

The dashed part of the orbit path shows where the satellite is in the earth's shadow,  

DLR